Weather History for Lapeer, MI

Change the Weather History Date:

Monday, February 18, 2013

  Actual Average (KFNT) Record (KFNT)
Temperature  
Mean Temperature 22 °F 25 °F  
Max Temperature 43 °F 33 °F 56 °F (1994)
Min Temperature 2 °F 17 °F -11 °F (1936)
Degree Days  
Heating Degree Days 42 40  
Month to date heating degree days 742  
Since 1 July heating degree days 4706  
Cooling Degree Days 0 0  
Month to date cooling degree days 0  
Year to date cooling degree days 0  
Moisture  
Dew Point 18 °F    
Average Humidity 68    
Maximum Humidity 88    
Minimum Humidity 56    
Precipitation  
Precipitation 0.00 in 0.06 in 0.70 in (1926)
Month to date precipitation 0.90  
Year to date precipitation 2.53  
Snow  
Snow 0.00 in 0.30 in 5.00 in (1962)
Month to date snowfall 7.1  
Since 1 July snowfall 34.9  
Snow Depth -    
Sea Level Pressure  
Sea Level Pressure 29.92 in    
Wind  
Wind Speed 7 mph (SSE)    
Max Wind Speed 20 mph    
Max Gust Speed 24 mph    
Visibility 10 miles    
Events      
T = Trace of Precipitation, MM = Missing Value Source: NWS Daily Summary

Daily Weather History Graph

Daily Weather History Graph

Search for Another Location

Airport:

Trip Planner

Search our weather history database for the weather conditions in past years. The results will help you decide how hot, cold, wet, or windy it might be!

Date:

Astronomy

Feb. 18, 2013 Rise Set
Actual Time 7:25 AM EST 6:08 PM EST
Civil Twilight 6:57 AM EST 6:37 PM EST
Nautical Twilight 6:23 AM EST 7:10 PM EST
Astronomical Twilight 5:51 AM EST 7:43 PM EST
Moon 11:49 AM EST (2/18) 2:08 AM EST (2/18)
Length of Visible Light 11h 40m
Length of Day
10h 42m
First Quarter, 58% of the Moon is Illuminated
Feb 18
First Quarter
Feb 25
Full
Mar 4
Last Quarter
Mar 11
New
Mar 19
First Quarter

Hourly Weather History & Observations

Time (EST) Temp. Windchill Dew Point Humidity Pressure Visibility Wind Dir Wind Speed Gust Speed Precip Events Conditions
12:13 AM 2.3 °F - -1.1 °F 86% 30.17 in 10.0 mi Calm Calm - N/A   Clear
12:32 AM 4.6 °F - 1.4 °F 86% 30.18 in 10.0 mi Calm Calm - N/A   Clear
12:53 AM 3.2 °F -4.2 °F 0.3 °F 88% 30.18 in 10.0 mi SE 3.5 mph - N/A   Clear
1:13 AM 10.6 °F 2.5 °F 5.0 °F 78% 30.18 in 10.0 mi SSE 4.6 mph - N/A   Clear
1:32 AM 14.4 °F 6.9 °F 6.4 °F 71% 30.18 in 10.0 mi SSE 4.6 mph - N/A   Scattered Clouds
1:53 AM 14.9 °F 7.5 °F 6.4 °F 69% 30.18 in 10.0 mi SSE 4.6 mph - N/A   Scattered Clouds
2:13 AM 15.3 °F 7.9 °F 6.6 °F 69% 30.17 in 10.0 mi SE 4.6 mph - N/A   Clear
2:32 AM 15.4 °F 8.1 °F 6.4 °F 68% 30.17 in 10.0 mi SSE 4.6 mph - N/A   Clear
2:53 AM 15.3 °F 7.9 °F 6.3 °F 68% 30.17 in 10.0 mi SSE 4.6 mph - N/A   Clear
3:13 AM 15.3 °F 6.6 °F 6.4 °F 68% 30.16 in 10.0 mi SSE 5.8 mph - N/A   Clear
3:32 AM 15.3 °F 7.9 °F 7.2 °F 70% 30.16 in 10.0 mi SSE 4.6 mph - N/A   Clear
3:53 AM 15.6 °F 7.0 °F 7.7 °F 71% 30.15 in 10.0 mi SSE 5.8 mph - N/A   Clear
4:12 AM 15.8 °F 8.6 °F 7.9 °F 71% 30.15 in 10.0 mi SSE 4.6 mph - N/A   Clear
4:32 AM 16.0 °F 7.4 °F 8.6 °F 73% 30.14 in 10.0 mi SE 5.8 mph - N/A   Clear
4:53 AM 16.7 °F 7.2 °F 9.1 °F 72% 30.14 in 10.0 mi SSE 6.9 mph - N/A   Scattered Clouds
5:12 AM 16.9 °F 8.5 °F 9.9 °F 74% 30.12 in 10.0 mi SE 5.8 mph - N/A   Mostly Cloudy
5:32 AM 17.2 °F 8.9 °F 10.4 °F 75% 30.12 in 10.0 mi SE 5.8 mph - N/A   Scattered Clouds
5:53 AM 17.6 °F 10.7 °F 10.8 °F 75% 30.12 in 10.0 mi SSE 4.6 mph - N/A   Scattered Clouds
6:12 AM 18.0 °F 9.8 °F 11.3 °F 75% 30.11 in 10.0 mi SE 5.8 mph - N/A   Scattered Clouds
6:33 AM 18.5 °F 10.4 °F 12.0 °F 76% 30.10 in 10.0 mi SE 5.8 mph - N/A   Overcast
6:53 AM 18.9 °F 9.8 °F 12.4 °F 76% 30.09 in 10.0 mi SSE 6.9 mph - N/A   Overcast
7:12 AM 19.0 °F 11.1 °F 12.7 °F 76% 30.08 in 10.0 mi SE 5.8 mph - N/A   Overcast
7:33 AM 19.4 °F 10.4 °F 13.6 °F 78% 30.07 in 10.0 mi SE 6.9 mph - N/A   Overcast
7:52 AM 20.5 °F 10.0 °F 14.0 °F 76% 30.06 in 10.0 mi SSE 9.2 mph - N/A   Overcast
8:12 AM 21.0 °F 9.3 °F 14.4 °F 75% 30.06 in 10.0 mi SSE 11.5 mph 18.4 mph N/A   Overcast
8:33 AM 21.9 °F 11.7 °F 13.8 °F 71% 30.05 in 10.0 mi SSE 9.2 mph 18.4 mph N/A   Overcast
8:52 AM 21.9 °F 11.7 °F 13.5 °F 70% 30.04 in 10.0 mi SSE 9.2 mph - N/A   Mostly Cloudy
9:12 AM 23.0 °F 11.1 °F 14.0 °F 68% 30.02 in 10.0 mi SE 12.7 mph 17.3 mph N/A   Overcast
9:33 AM 24.4 °F 14.2 °F 13.8 °F 64% 30.00 in 10.0 mi SE 10.4 mph 18.4 mph N/A   Mostly Cloudy
9:52 AM 25.9 °F 16.0 °F 14.0 °F 61% 30.00 in 10.0 mi SSE 10.4 mph 18.4 mph N/A   Clear
10:12 AM 26.8 °F 17.7 °F 13.8 °F 58% 29.99 in 10.0 mi SSE 9.2 mph 18.4 mph N/A   Clear
10:33 AM 28.0 °F 17.5 °F 14.2 °F 56% 29.98 in 10.0 mi SSE 12.7 mph 21.9 mph N/A   Clear
10:52 AM 28.4 °F 18.0 °F 16.0 °F 60% 29.97 in 10.0 mi SE 12.7 mph 18.4 mph N/A   Clear
11:13 AM 29.7 °F 19.6 °F 16.7 °F 59% 29.96 in 10.0 mi SSE 12.7 mph 23.0 mph N/A   Clear
11:33 AM 30.4 °F 20.5 °F 16.9 °F 57% 29.94 in 10.0 mi SE 12.7 mph 19.6 mph N/A   Clear
11:52 AM 31.1 °F 21.4 °F 17.2 °F 57% 29.93 in 10.0 mi SSE 12.7 mph 19.6 mph N/A   Clear
12:13 PM 31.5 °F 20.9 °F 18.0 °F 57% 29.92 in 10.0 mi SE 15.0 mph 19.6 mph N/A   Clear
12:32 PM 31.8 °F 22.8 °F 18.0 °F 57% 29.91 in 10.0 mi SE 11.5 mph 19.6 mph N/A   Clear
12:52 PM 32.0 °F 22.1 °F 18.5 °F 58% 29.90 in 10.0 mi SSE 13.8 mph 19.6 mph N/A   Clear
1:13 PM 32.2 °F 22.7 °F 18.7 °F 58% 29.89 in 10.0 mi SSE 12.7 mph 23.0 mph N/A   Clear
1:32 PM 32.2 °F 21.1 °F 19.4 °F 59% 29.87 in 10.0 mi SSE 17.3 mph 23.0 mph N/A   Clear
1:52 PM 32.4 °F 22.5 °F 19.4 °F 59% 29.86 in 10.0 mi SSE 13.8 mph 23.0 mph N/A   Clear
2:13 PM 32.5 °F 20.8 °F 19.9 °F 60% 29.85 in 10.0 mi South 19.6 mph 23.0 mph N/A   Clear
2:32 PM 32.4 °F 22.1 °F 20.3 °F 61% 29.84 in 10.0 mi SSE 15.0 mph 19.6 mph N/A   Clear
2:52 PM 32.7 °F 23.0 °F 20.7 °F 61% 29.83 in 10.0 mi South 13.8 mph 19.6 mph N/A   Clear
3:13 PM 33.8 °F 23.5 °F 21.7 °F 61% 29.82 in 10.0 mi SSE 16.1 mph 23.0 mph N/A   Clear
3:32 PM 33.6 °F 25.6 °F 21.2 °F 60% 29.80 in 10.0 mi SSE 10.4 mph 24.2 mph N/A   Clear
3:52 PM 33.8 °F 25.3 °F 21.2 °F 60% 29.78 in 10.0 mi SE 11.5 mph 17.3 mph N/A   Clear
4:13 PM 33.8 °F 27.0 °F 22.1 °F 62% 29.78 in 10.0 mi SE 8.1 mph 17.3 mph N/A   Clear
4:32 PM 33.1 °F 23.9 °F 22.5 °F 65% 29.76 in 10.0 mi SE 12.7 mph - N/A   Clear
4:52 PM 32.9 °F 25.3 °F 23.0 °F 67% 29.76 in 10.0 mi SE 9.2 mph 17.3 mph N/A   Clear
5:13 PM 33.1 °F 26.9 °F 23.4 °F 67% 29.75 in 10.0 mi SE 6.9 mph - N/A   Clear
5:32 PM 33.1 °F 26.1 °F 23.9 °F 69% 29.75 in 10.0 mi SE 8.1 mph - N/A   Clear
5:52 PM 33.8 °F 27.0 °F 24.4 °F 69% 29.75 in 10.0 mi SE 8.1 mph - N/A   Clear
6:32 PM 36.5 °F 30.3 °F 26.8 °F 68% 29.73 in 10.0 mi SSE 8.1 mph 17.3 mph N/A   Overcast
6:52 PM 37.2 °F 29.6 °F 27.5 °F 68% 29.73 in 10.0 mi SSE 11.5 mph 16.1 mph N/A   Overcast
7:13 PM 38.1 °F 29.8 °F 28.6 °F 69% 29.73 in 10.0 mi South 13.8 mph - N/A   Overcast
7:32 PM 38.7 °F 31.4 °F 29.3 °F 69% 29.72 in 10.0 mi SSE 11.5 mph 21.9 mph N/A   Overcast
7:52 PM 39.2 °F 31.2 °F 29.8 °F 69% 29.72 in 10.0 mi South 13.8 mph 18.4 mph N/A   Overcast
8:13 PM 40.1 °F 32.7 °F 30.2 °F 68% 29.71 in 10.0 mi SSE 12.7 mph 19.6 mph N/A   Overcast
8:32 PM 40.1 °F 33.2 °F 30.6 °F 69% 29.70 in 10.0 mi South 11.5 mph 18.4 mph N/A   Overcast
8:52 PM 39.7 °F 34.3 °F 30.6 °F 70% 29.68 in 10.0 mi SSE 8.1 mph 19.6 mph N/A   Overcast
9:13 PM 39.0 °F 32.8 °F 30.4 °F 71% 29.67 in 10.0 mi SSE 9.2 mph - N/A   Overcast
9:32 PM 38.7 °F 33.6 °F 30.4 °F 72% 29.66 in 10.0 mi SSE 6.9 mph - N/A   Scattered Clouds
9:53 PM 39.0 °F 32.3 °F 30.6 °F 72% 29.65 in 10.0 mi SSE 10.4 mph - N/A   Mostly Cloudy
10:13 PM 39.0 °F 34.0 °F 30.7 °F 72% 29.64 in 10.0 mi SSE 6.9 mph - N/A   Overcast
10:32 PM 39.7 °F 34.9 °F 31.1 °F 71% 29.63 in 10.0 mi SE 6.9 mph - N/A   Overcast
10:53 PM 39.9 °F 35.1 °F 31.5 °F 72% 29.62 in 10.0 mi ESE 6.9 mph - N/A   Overcast
11:13 PM 43.3 °F 36.1 °F 32.0 °F 64% 29.60 in 10.0 mi South 15.0 mph 19.6 mph N/A   Overcast
11:32 PM 43.3 °F 36.8 °F 32.0 °F 64% 29.58 in 10.0 mi South 12.7 mph 20.7 mph N/A   Overcast
11:53 PM 43.0 °F 36.4 °F 32.0 °F 65% 29.57 in 10.0 mi South 12.7 mph 17.3 mph N/A   Overcast